Time,TemperatureF,DewpointF,PressureIn,WindDirection,WindDirectionDegrees,WindSpeedMPH,WindSpeedGustMPH,Humidity,HourlyPrecipIn,Conditions,Clouds,dailyrainin,SoftwareType,DateUTC
2013-01-14 00:12:00,48.6,48.0,29.99,SSE,148,0.0,3.0,99,0.00,,,0.00,weatherlink.com 1.10,2013-01-14 05:12:00,
2013-01-14 00:27:00,48.7,49.0,29.98,SE,136,0.0,5.0,99,0.00,,,0.00,weatherlink.com 1.10,2013-01-14 05:27:00,
2013-01-14 00:42:00,48.8,49.0,29.98,SE,126,1.0,4.0,99,0.00,,,0.00,weatherlink.com 1.10,2013-01-14 05:42:00,
2013-01-14 00:57:00,48.9,49.0,29.99,East,98,1.0,3.0,99,0.00,,,0.00,weatherlink.com 1.10,2013-01-14 05:57:00,
2013-01-14 01:12:00,49.0,49.0,29.99,ESE,104,3.0,3.0,99,0.00,,,0.00,weatherlink.com 1.10,2013-01-14 06:12:00,
2013-01-14 01:27:00,49.0,49.0,29.99,ENE,75,0.0,3.0,99,0.00,,,0.00,weatherlink.com 1.10,2013-01-14 06:27:00,
2013-01-14 01:42:00,49.2,49.0,29.99,East,92,1.0,2.0,99,0.00,,,0.00,weatherlink.com 1.10,2013-01-14 06:42:00,
2013-01-14 01:57:00,49.2,49.0,29.99,East,92,0.0,1.0,99,0.00,,,0.00,weatherlink.com 1.10,2013-01-14 06:57:00,
2013-01-14 02:12:00,49.1,49.0,30.00,East,92,0.0,0.0,99,0.00,,,0.00,weatherlink.com 1.10,2013-01-14 07:12:00,
2013-01-14 02:27:00,49.1,49.0,30.00,East,92,0.0,2.0,99,0.00,,,0.00,weatherlink.com 1.10,2013-01-14 07:27:00,
2013-01-14 02:42:00,49.1,49.0,30.01,East,88,0.0,2.0,99,0.00,,,0.00,weatherlink.com 1.10,2013-01-14 07:42:00,
2013-01-14 02:57:00,49.4,49.0,30.01,NNE,27,0.0,2.0,99,0.00,,,0.00,weatherlink.com 1.10,2013-01-14 07:57:00,
2013-01-14 03:12:00,49.1,49.0,30.00,NNE,27,0.0,0.0,99,0.00,,,0.00,weatherlink.com 1.10,2013-01-14 08:12:00,
2013-01-14 03:27:00,48.7,49.0,30.01,ESE,109,0.0,2.0,99,0.00,,,0.00,weatherlink.com 1.10,2013-01-14 08:27:00,
2013-01-14 03:42:00,49.0,49.0,30.00,East,83,2.0,2.0,99,0.00,,,0.00,weatherlink.com 1.10,2013-01-14 08:42:00,
2013-01-14 03:57:00,49.2,49.0,29.98,East,97,1.0,3.0,99,0.00,,,0.00,weatherlink.com 1.10,2013-01-14 08:57:00,
2013-01-14 04:12:00,49.1,49.0,29.93,East,87,3.0,7.0,99,0.00,,,0.00,weatherlink.com 1.10,2013-01-14 09:12:00,
2013-01-14 04:27:00,49.7,50.0,29.94,ESE,117,4.0,5.0,99,0.00,,,0.00,weatherlink.com 1.10,2013-01-14 09:27:00,
2013-01-14 04:42:00,49.9,50.0,29.95,South,188,0.0,4.0,99,0.00,,,0.00,weatherlink.com 1.10,2013-01-14 09:42:00,
2013-01-14 04:57:00,50.2,50.0,29.96,WSW,250,0.0,4.0,99,0.00,,,0.00,weatherlink.com 1.10,2013-01-14 09:57:00,
2013-01-14 05:12:00,50.1,50.0,29.97,SW,220,2.0,3.0,99,0.00,,,0.00,weatherlink.com 1.10,2013-01-14 10:12:00,
2013-01-14 05:27:00,50.3,50.0,29.98,NW,320,0.0,4.0,99,0.00,,,0.00,weatherlink.com 1.10,2013-01-14 10:27:00,
2013-01-14 05:42:00,49.9,50.0,29.98,NW,325,4.0,5.0,99,0.00,,,0.00,weatherlink.com 1.10,2013-01-14 10:42:00,
2013-01-14 05:57:00,49.7,50.0,29.99,NNW,342,0.0,5.0,99,0.00,,,0.00,weatherlink.com 1.10,2013-01-14 10:57:00,
2013-01-14 06:12:00,49.4,49.0,30.00,NW,316,0.0,4.0,99,0.00,,,0.00,weatherlink.com 1.10,2013-01-14 11:12:00,
2013-01-14 06:27:00,49.1,49.0,30.00,NW,323,0.0,2.0,99,0.00,,,0.00,weatherlink.com 1.10,2013-01-14 11:27:00,
2013-01-14 06:42:00,48.9,49.0,30.02,West,259,2.0,3.0,99,0.00,,,0.00,weatherlink.com 1.10,2013-01-14 11:42:00,
2013-01-14 06:57:00,49.0,49.0,30.02,NW,306,1.0,3.0,99,0.00,,,0.00,weatherlink.com 1.10,2013-01-14 11:57:00,
2013-01-14 07:12:00,49.0,49.0,30.02,WNW,284,0.0,2.0,99,0.00,,,0.00,weatherlink.com 1.10,2013-01-14 12:12:00,
2013-01-14 07:27:00,48.9,49.0,30.06,NW,308,3.0,4.0,99,0.00,,,0.00,weatherlink.com 1.10,2013-01-14 12:27:00,
2013-01-14 07:43:00,48.6,48.0,30.09,WNW,301,8.0,10.0,99,0.00,,,0.00,weatherlink.com 1.10,2013-01-14 12:43:00,
2013-01-14 07:58:00,48.5,48.0,30.09,West,260,3.0,4.0,99,0.00,,,0.00,weatherlink.com 1.10,2013-01-14 12:58:00,
2013-01-14 08:13:00,48.6,48.0,30.09,SSW,202,3.0,4.0,99,0.00,,,0.00,weatherlink.com 1.10,2013-01-14 13:13:00,
2013-01-14 08:28:00,48.7,49.0,30.10,West,263,3.0,5.0,99,0.00,,,0.00,weatherlink.com 1.10,2013-01-14 13:28:00,
2013-01-14 08:43:00,48.8,49.0,30.11,West,274,3.0,6.0,99,0.00,,,0.00,weatherlink.com 1.10,2013-01-14 13:43:00,
2013-01-14 08:58:00,48.9,49.0,30.11,WSW,256,4.0,6.0,99,0.00,,,0.00,weatherlink.com 1.10,2013-01-14 13:58:00,
2013-01-14 09:13:00,49.0,49.0,30.12,WSW,253,3.0,6.0,99,0.00,,,0.00,weatherlink.com 1.10,2013-01-14 14:13:00,
2013-01-14 09:28:00,49.1,49.0,30.12,WSW,244,1.0,4.0,99,0.00,,,0.00,weatherlink.com 1.10,2013-01-14 14:28:00,
2013-01-14 09:43:00,49.3,49.0,30.12,West,268,1.0,4.0,99,0.00,,,0.00,weatherlink.com 1.10,2013-01-14 14:43:00,
2013-01-14 09:58:00,49.5,49.0,30.14,West,259,4.0,5.0,99,0.00,,,0.00,weatherlink.com 1.10,2013-01-14 14:58:00,
2013-01-14 10:13:00,49.5,49.0,30.15,West,265,1.0,6.0,99,0.00,,,0.00,weatherlink.com 1.10,2013-01-14 15:13:00,
2013-01-14 10:28:00,49.7,50.0,30.16,West,265,3.0,6.0,99,0.00,,,0.00,weatherlink.com 1.10,2013-01-14 15:28:00,
2013-01-14 10:43:00,49.9,50.0,30.16,West,270,5.0,9.0,99,0.00,,,0.00,weatherlink.com 1.10,2013-01-14 15:43:00,
2013-01-14 10:58:00,50.1,50.0,30.16,WNW,294,3.0,8.0,99,0.00,,,0.00,weatherlink.com 1.10,2013-01-14 15:58:00,
2013-01-14 11:13:00,50.6,50.0,30.16,NW,311,5.0,9.0,99,0.00,,,0.00,weatherlink.com 1.10,2013-01-14 16:13:00,
2013-01-14 11:28:00,51.1,50.0,30.15,WNW,300,2.0,12.0,94,0.00,,,0.00,weatherlink.com 1.10,2013-01-14 16:28:00,
2013-01-14 11:43:00,51.2,49.0,30.14,NW,321,4.0,8.0,93,0.00,,,0.00,weatherlink.com 1.10,2013-01-14 16:43:00,
2013-01-14 11:58:00,51.4,49.0,30.15,NW,323,0.0,9.0,91,0.00,,,0.00,weatherlink.com 1.10,2013-01-14 16:58:00,
2013-01-14 12:13:00,51.4,48.0,30.15,NNW,332,4.0,12.0,87,0.00,,,0.00,weatherlink.com 1.10,2013-01-14 17:13:00,
2013-01-14 12:28:00,51.2,46.0,30.16,NW,306,4.0,12.0,83,0.00,,,0.00,weatherlink.com 1.10,2013-01-14 17:28:00,
2013-01-14 12:43:00,51.2,46.0,30.15,NW,306,4.0,11.0,82,0.00,,,0.00,weatherlink.com 1.10,2013-01-14 17:43:00,
2013-01-14 12:58:00,50.9,45.0,30.15,NW,313,7.0,13.0,81,0.00,,,0.00,weatherlink.com 1.10,2013-01-14 17:58:00,
2013-01-14 13:13:00,50.0,44.0,30.15,North,5,5.0,10.0,80,0.00,,,0.00,weatherlink.com 1.10,2013-01-14 18:13:00,
2013-01-14 13:28:00,50.1,44.0,30.16,WNW,302,8.0,11.0,78,0.00,,,0.00,weatherlink.com 1.10,2013-01-14 18:28:00,
2013-01-14 13:43:00,49.6,42.0,30.17,WNW,291,9.0,11.0,74,0.00,,,0.00,weatherlink.com 1.10,2013-01-14 18:43:00,
2013-01-14 13:58:00,49.3,41.0,30.16,NNW,341,3.0,12.0,72,0.00,,,0.00,weatherlink.com 1.10,2013-01-14 18:58:00,
2013-01-14 14:13:00,49.4,41.0,30.17,NW,319,1.0,8.0,73,0.00,,,0.00,weatherlink.com 1.10,2013-01-14 19:13:00,
2013-01-14 14:28:00,49.7,41.0,30.17,NNW,333,6.0,9.0,72,0.00,,,0.00,weatherlink.com 1.10,2013-01-14 19:28:00,
2013-01-14 14:43:00,49.8,41.0,30.18,NNW,341,2.0,8.0,71,0.00,,,0.00,weatherlink.com 1.10,2013-01-14 19:43:00,
2013-01-14 14:58:00,49.8,41.0,30.18,NW,323,5.0,6.0,73,0.00,,,0.00,weatherlink.com 1.10,2013-01-14 19:58:00,
2013-01-14 15:13:00,49.8,40.0,30.18,NW,316,3.0,8.0,70,0.00,,,0.00,weatherlink.com 1.10,2013-01-14 20:13:00,
2013-01-14 15:28:00,49.7,40.0,30.18,NNW,327,3.0,7.0,70,0.00,,,0.00,weatherlink.com 1.10,2013-01-14 20:28:00,
2013-01-14 15:43:00,49.5,40.0,30.18,NNW,331,4.0,6.0,70,0.00,,,0.00,weatherlink.com 1.10,2013-01-14 20:43:00,
2013-01-14 15:58:00,49.4,40.0,30.19,NNW,335,4.0,9.0,69,0.00,,,0.00,weatherlink.com 1.10,2013-01-14 20:58:00,
2013-01-14 16:13:00,49.2,39.0,30.19,NW,322,2.0,6.0,69,0.00,,,0.00,weatherlink.com 1.10,2013-01-14 21:13:00,
2013-01-14 16:28:00,49.1,39.0,30.19,NNW,328,0.0,3.0,69,0.00,,,0.00,weatherlink.com 1.10,2013-01-14 21:28:00,
2013-01-14 16:43:00,48.9,40.0,30.17,NW,319,0.0,3.0,72,0.00,,,0.00,weatherlink.com 1.10,2013-01-14 21:43:00,
2013-01-14 16:58:00,48.4,40.0,30.19,WNW,287,2.0,3.0,72,0.00,,,0.00,weatherlink.com 1.10,2013-01-14 21:58:00,
2013-01-14 17:13:00,48.2,40.0,30.19,WNW,287,0.0,0.0,72,0.00,,,0.00,weatherlink.com 1.10,2013-01-14 22:13:00,
2013-01-14 17:28:00,48.2,40.0,30.19,WNW,287,0.0,0.0,72,0.00,,,0.00,weatherlink.com 1.10,2013-01-14 22:28:00,
2013-01-14 17:43:00,47.6,40.0,30.21,WNW,284,0.0,3.0,74,0.00,,,0.00,weatherlink.com 1.10,2013-01-14 22:43:00,
2013-01-14 17:58:00,48.1,38.0,30.22,NW,321,3.0,5.0,67,0.00,,,0.00,weatherlink.com 1.10,2013-01-14 22:58:00,
2013-01-14 18:13:00,48.0,37.0,30.23,NW,313,3.0,6.0,67,0.00,,,0.00,weatherlink.com 1.10,2013-01-14 23:13:00,
2013-01-14 18:28:00,47.9,38.0,30.24,NNW,331,2.0,4.0,68,0.00,,,0.00,weatherlink.com 1.10,2013-01-14 23:28:00,
2013-01-14 18:44:00,47.6,37.0,30.25,NW,319,1.0,6.0,68,0.00,,,0.00,weatherlink.com 1.10,2013-01-14 23:44:00,
2013-01-14 18:59:00,47.4,37.0,30.25,NNW,328,1.0,6.0,67,0.00,,,0.00,weatherlink.com 1.10,2013-01-14 23:59:00,
2013-01-14 19:14:00,47.1,37.0,30.27,NW,322,3.0,8.0,68,0.00,,,0.00,weatherlink.com 1.10,2013-01-15 00:14:00,
2013-01-14 19:29:00,46.7,37.0,30.27,WNW,302,5.0,8.0,70,0.01,,,0.01,weatherlink.com 1.10,2013-01-15 00:29:00,
2013-01-14 19:44:00,45.2,38.0,30.27,NW,315,0.0,5.0,75,0.03,,,0.03,weatherlink.com 1.10,2013-01-15 00:44:00,
2013-01-14 19:59:00,44.7,38.0,30.27,WNW,296,0.0,4.0,76,0.03,,,0.03,weatherlink.com 1.10,2013-01-15 00:59:00,
2013-01-14 20:14:00,44.5,38.0,30.27,NW,316,0.0,3.0,78,0.04,,,0.04,weatherlink.com 1.10,2013-01-15 01:14:00,
2013-01-14 20:29:00,43.6,39.0,30.29,West,269,2.0,2.0,84,0.04,,,0.05,weatherlink.com 1.10,2013-01-15 01:29:00,
2013-01-14 20:44:00,43.2,38.0,30.30,West,274,0.0,4.0,83,0.03,,,0.06,weatherlink.com 1.10,2013-01-15 01:44:00,
2013-01-14 20:59:00,42.9,39.0,30.29,West,277,0.0,2.0,85,0.04,,,0.07,weatherlink.com 1.10,2013-01-15 01:59:00,
2013-01-14 21:14:00,42.3,38.0,30.29,West,268,0.0,2.0,86,0.04,,,0.08,weatherlink.com 1.10,2013-01-15 02:14:00,
2013-01-14 21:29:00,42.2,39.0,30.29,West,275,0.0,0.0,88,0.04,,,0.09,weatherlink.com 1.10,2013-01-15 02:29:00,
2013-01-14 21:44:00,41.7,39.0,30.29,WNW,290,0.0,2.0,89,0.05,,,0.11,weatherlink.com 1.10,2013-01-15 02:44:00,
2013-01-14 21:59:00,41.5,38.0,30.28,NW,326,2.0,6.0,87,0.05,,,0.12,weatherlink.com 1.10,2013-01-15 02:59:00,
2013-01-14 22:14:00,41.2,38.0,30.29,NNW,348,1.0,5.0,88,0.04,,,0.12,weatherlink.com 1.10,2013-01-15 03:14:00,
2013-01-14 22:29:00,40.8,38.0,30.29,NW,315,2.0,5.0,90,0.05,,,0.14,weatherlink.com 1.10,2013-01-15 03:29:00,
2013-01-14 22:44:00,40.2,38.0,30.31,NW,313,7.0,8.0,91,0.05,,,0.16,weatherlink.com 1.10,2013-01-15 03:44:00,
2013-01-14 22:59:00,40.1,38.0,30.30,NW,319,3.0,6.0,91,0.04,,,0.16,weatherlink.com 1.10,2013-01-15 03:59:00,
2013-01-14 23:14:00,39.9,38.0,30.30,West,276,0.0,6.0,92,0.05,,,0.17,weatherlink.com 1.10,2013-01-15 04:14:00,
2013-01-14 23:29:00,39.7,38.0,30.30,West,272,0.0,2.0,93,0.04,,,0.18,weatherlink.com 1.10,2013-01-15 04:29:00,
2013-01-14 23:44:00,39.6,38.0,30.29,West,272,0.0,0.0,93,0.03,,,0.19,weatherlink.com 1.10,2013-01-15 04:44:00,
2013-01-14 23:59:00,39.6,38.0,30.28,West,272,0.0,0.0,94,0.05,,,0.21,weatherlink.com 1.10,2013-01-15 04:59:00,